�������l�o���
Date,Time,MP-1(��Sv/h),MP-2(��Sv/h),MP-3(��Sv/h),MP-4(��Sv/h),MP-5(��Sv/h),MP-6(��Sv/h),MP-7(��Sv/h),����,����(m/s),���J
2020/01/09,00:00,0.178,0.161,0.269,0.251,0.251,0.137,0.085,��쐼,3.5,��
2020/01/09,00:10,0.178,0.161,0.270,0.251,0.250,0.136,0.086,��쐼,4.1,��
2020/01/09,00:20,0.177,0.162,0.269,0.250,0.252,0.137,0.086,��쐼,3.9,��
2020/01/09,00:30,0.178,0.162,0.270,0.250,0.252,0.137,0.086,��쐼,5.2,��
2020/01/09,00:40,0.179,0.162,0.269,0.251,0.252,0.137,0.086,��쐼,5.9,��
2020/01/09,00:50,0.179,0.162,0.270,0.253,0.251,0.138,0.086,��쐼,5.2,��
2020/01/09,01:00,0.178,0.162,0.270,0.253,0.252,0.138,0.086,��쐼,4.8,��
2020/01/09,01:10,0.178,0.161,0.269,0.251,0.252,0.138,0.085,��,5.3,��
2020/01/09,01:20,0.178,0.161,0.269,0.252,0.251,0.137,0.085,��쐼,6.0,��
2020/01/09,01:30,0.178,0.161,0.270,0.250,0.251,0.138,0.086,�쐼,4.8,��
2020/01/09,01:40,0.178,0.161,0.268,0.251,0.251,0.136,0.084,���쐼,6.1,��
2020/01/09,01:50,0.178,0.161,0.269,0.251,0.250,0.137,0.085,��,7.3,��
2020/01/09,02:00,0.178,0.161,0.269,0.251,0.252,0.137,0.084,���k��,5.5,��
2020/01/09,02:10,0.178,0.161,0.268,0.250,0.250,0.137,0.084,�k��,5.5,��
2020/01/09,02:20,0.178,0.161,0.268,0.251,0.250,0.137,0.085,�k��,4.7,��
2020/01/09,02:30,0.178,0.161,0.270,0.251,0.250,0.137,0.085,�k��,5.2,�L
2020/01/09,02:40,0.179,0.161,0.270,0.251,0.251,0.137,0.085,�k��,4.6,�L
2020/01/09,02:50,0.178,0.161,0.270,0.251,0.251,0.137,0.085,�k��,3.7,��
2020/01/09,03:00,0.179,0.160,0.269,0.251,0.251,0.136,0.085,�k�k��,5.2,��
2020/01/09,03:10,0.178,0.161,0.271,0.252,0.251,0.137,0.085,�k,3.9,��
2020/01/09,03:20,0.178,0.161,0.269,0.250,0.252,0.137,0.085,�k,4.3,��
2020/01/09,03:30,0.179,0.161,0.269,0.251,0.251,0.137,0.085,�k,3.2,��
2020/01/09,03:40,0.179,0.161,0.272,0.251,0.251,0.137,0.085,�k�k��,3.9,��
2020/01/09,03:50,0.179,0.160,0.268,0.250,0.251,0.137,0.085,�k�k��,4.5,��
2020/01/09,04:00,0.178,0.160,0.269,0.249,0.251,0.137,0.085,�k,4.4,��
2020/01/09,04:10,0.178,0.161,0.270,0.251,0.251,0.137,0.085,�k�k��,3.1,��
2020/01/09,04:20,0.178,0.160,0.269,0.251,0.250,0.136,0.085,�k�k��,2.1,��
2020/01/09,04:30,0.176,0.160,0.270,0.250,0.249,0.136,0.084,�k,1.4,��
2020/01/09,04:40,0.177,0.160,0.268,0.249,0.250,0.136,0.085,�k�k��,2.2,��
2020/01/09,04:50,0.176,0.159,0.269,0.250,0.250,0.137,0.084,���k��,3.3,��
2020/01/09,05:00,0.177,0.159,0.269,0.250,0.250,0.137,0.085,�k��,4.7,��
2020/01/09,05:10,0.177,0.160,0.269,0.249,0.250,0.137,0.084,�k��,4.7,��
2020/01/09,05:20,0.177,0.159,0.270,0.250,0.249,0.137,0.084,�k��,4.0,��
2020/01/09,05:30,0.176,0.160,0.268,0.251,0.248,0.136,0.084,�k��,3.6,��
2020/01/09,05:40,0.177,0.160,0.269,0.250,0.251,0.136,0.084,�k��,4.9,��
2020/01/09,05:50,0.177,0.159,0.268,0.250,0.251,0.137,0.084,�k��,5.8,��
2020/01/09,06:00,0.177,0.160,0.268,0.251,0.249,0.136,0.085,�k��,5.6,��
2020/01/09,06:10,0.178,0.160,0.268,0.250,0.250,0.136,0.084,�k��,4.2,��
2020/01/09,06:20,0.178,0.160,0.267,0.249,0.250,0.137,0.083,���k��,5.0,�L
2020/01/09,06:30,0.178,0.160,0.269,0.249,0.251,0.137,0.084,�k��,5.0,�L
2020/01/09,06:40,0.178,0.160,0.268,0.250,0.250,0.136,0.085,�k��,5.9,��
2020/01/09,06:50,0.177,0.160,0.267,0.250,0.251,0.137,0.085,�k��,7.0,��
2020/01/09,07:00,0.179,0.160,0.270,0.249,0.250,0.137,0.084,���k��,5.8,��
2020/01/09,07:10,0.177,0.159,0.268,0.250,0.250,0.137,0.085,���k��,6.0,��
2020/01/09,07:20,0.177,0.159,0.269,0.251,0.251,0.136,0.085,���k��,5.5,��
2020/01/09,07:30,0.178,0.160,0.268,0.250,0.249,0.137,0.085,���k��,5.5,��
2020/01/09,07:40,0.177,0.159,0.269,0.250,0.251,0.136,0.084,���k��,5.1,��
2020/01/09,07:50,0.177,0.161,0.269,0.250,0.252,0.136,0.083,�k��,4.5,��
2020/01/09,08:00,0.178,0.159,0.269,0.251,0.250,0.137,0.085,�k,3.3,��
2020/01/09,08:10,0.177,0.159,0.270,0.251,0.250,0.137,0.085,�k,4.3,��
2020/01/09,08:20,0.177,0.160,0.271,0.250,0.251,0.136,0.085,�k,4.7,��
2020/01/09,08:30,0.177,0.161,0.270,0.250,0.250,0.137,0.085,�k�k��,4.1,��
2020/01/09,08:40,0.178,0.161,0.269,0.251,0.249,0.137,0.085,�k�k��,2.7,��
2020/01/09,08:50,0.176,0.159,0.271,0.250,0.250,0.136,0.084,�k,4.7,��
2020/01/09,09:00,0.177,0.161,0.269,0.250,0.251,0.136,0.084,�k,7.0,��
2020/01/09,09:10,0.177,0.160,0.268,0.249,0.249,0.136,0.084,�k�k��,6.6,��
2020/01/09,09:20,0.177,0.160,0.270,0.250,0.250,0.136,0.084,�k,7.0,��
2020/01/09,09:30,0.177,0.159,0.269,0.250,0.249,0.136,0.084,�k,8.1,��
2020/01/09,09:40,0.178,0.160,0.268,0.249,0.250,0.136,0.084,�k,7.2,��
2020/01/09,09:50,0.178,0.160,0.269,0.249,0.249,0.136,0.084,�k,6.7,��
2020/01/09,10:00,0.177,0.160,0.269,0.250,0.250,0.136,0.084,�k,7.3,��
2020/01/09,10:10,0.178,0.160,0.268,0.249,0.249,0.136,0.085,�k,8.6,��
2020/01/09,10:20,0.177,0.158,0.269,0.251,0.250,0.137,0.084,�k,8.2,��
2020/01/09,10:30,0.177,0.159,0.266,0.249,0.248,0.137,0.084,�k,7.8,��
2020/01/09,10:40,0.177,0.160,0.269,0.251,0.251,0.137,0.084,�k,6.3,��
2020/01/09,10:50,0.179,0.159,0.270,0.251,0.251,0.137,0.084,�k,6.1,��
2020/01/09,11:00,0.177,0.160,0.270,0.250,0.251,0.137,0.083,�k,6.0,��
2020/01/09,11:10,0.177,0.161,0.269,0.251,0.250,0.137,0.085,�k�k��,7.4,��
2020/01/09,11:20,0.178,0.160,0.268,0.249,0.248,0.137,0.084,�k�k��,6.2,��
2020/01/09,11:30,0.177,0.160,0.268,0.250,0.251,0.137,0.083,�k�k��,5.4,��
2020/01/09,11:40,0.177,0.161,0.269,0.251,0.250,0.136,0.084,�k,4.9,��
2020/01/09,11:50,0.178,0.160,0.268,0.250,0.249,0.136,0.084,�k,4.4,�L
2020/01/09,12:00,0.177,0.160,0.270,0.252,0.250,0.136,0.084,�k,3.5,�L
2020/01/09,12:10,0.178,0.160,0.269,0.250,0.249,0.137,0.085,�k,3.1,��
2020/01/09,12:20,0.178,0.160,0.270,0.249,0.249,0.137,0.084,�k�k��,3.4,��
2020/01/09,12:30,0.178,0.159,0.269,0.250,0.252,0.137,0.084,�k�k��,0.6,�L
2020/01/09,12:40,0.176,0.161,0.268,0.250,0.250,0.137,0.085,���쐼,1.3,�L
2020/01/09,12:50,0.178,0.160,0.269,0.250,0.251,0.137,0.084,-,CALM,�L
2020/01/09,13:00,0.178,0.160,0.269,0.250,0.251,0.138,0.084,���k��,3.0,�L
2020/01/09,13:10,0.177,0.160,0.269,0.250,0.249,0.137,0.085,�k��,3.4,�L
2020/01/09,13:20,0.178,0.161,0.268,0.250,0.251,0.137,0.085,�k,2.6,��
2020/01/09,13:30,0.177,0.161,0.271,0.251,0.250,0.137,0.084,�k�k��,3.1,��
2020/01/09,13:40,0.177,0.160,0.269,0.249,0.250,0.138,0.085,���k��,4.3,��
2020/01/09,13:50,0.178,0.160,0.268,0.250,0.251,0.137,0.084,�k��,5.2,��
2020/01/09,14:00,0.177,0.160,0.269,0.251,0.251,0.136,0.084,�k��,5.2,��
2020/01/09,14:10,0.178,0.161,0.268,0.250,0.252,0.137,0.085,�k��,5.6,��
2020/01/09,14:20,0.178,0.159,0.269,0.252,0.249,0.135,0.084,���k��,5.1,��
2020/01/09,14:30,0.177,0.160,0.270,0.250,0.249,0.136,0.084,���k��,4.1,��
2020/01/09,14:40,0.179,0.159,0.271,0.250,0.250,0.137,0.085,�k��,4.2,��
2020/01/09,14:50,0.178,0.160,0.269,0.250,0.249,0.137,0.084,�k,5.8,��
2020/01/09,15:00,0.178,0.161,0.271,0.249,0.251,0.137,0.085,�k�k��,6.1,��
2020/01/09,15:10,0.177,0.160,0.269,0.249,0.250,0.134,0.084,�k�k��,4.0,��
2020/01/09,15:20,0.179,0.159,0.269,0.250,0.251,0.136,0.084,�k�k��,5.3,��
2020/01/09,15:30,0.178,0.160,0.270,0.253,0.252,0.137,0.084,�k�k��,4.5,��
2020/01/09,15:40,0.178,0.160,0.270,0.251,0.250,0.137,0.084,�k�k��,4.6,��
2020/01/09,15:50,0.178,0.160,0.268,0.251,0.251,0.137,0.085,�k��,4.1,��
2020/01/09,16:00,0.179,0.161,0.271,0.253,0.251,0.136,0.084,�k�k��,4.5,��
2020/01/09,16:10,0.179,0.161,0.270,0.251,0.251,0.137,0.085,�k�k��,4.1,��
2020/01/09,16:20,0.177,0.160,0.269,0.251,0.251,0.138,0.084,�k��,3.2,��
2020/01/09,16:30,0.177,0.160,0.269,0.251,0.251,0.137,0.084,�k�k��,3.1,��
2020/01/09,16:40,0.177,0.160,0.270,0.252,0.250,0.137,0.084,�k,1.6,��
2020/01/09,16:50,0.177,0.160,0.268,0.251,0.250,0.137,0.085,�k��,0.6,��
2020/01/09,17:00,0.179,0.160,0.269,0.251,0.251,0.138,0.084,��,2.2,��
2020/01/09,17:10,0.179,0.160,0.270,0.251,0.251,0.137,0.085,��,4.8,��
2020/01/09,17:20,0.176,0.159,0.268,0.249,0.251,0.137,0.084,��,7.4,��
2020/01/09,17:30,0.177,0.161,0.270,0.249,0.250,0.137,0.084,��,9.2,��
2020/01/09,17:40,0.178,0.160,0.269,0.251,0.251,0.137,0.085,���k��,9.6,��
2020/01/09,17:50,0.177,0.160,0.271,0.252,0.250,0.137,0.084,���k��,9.2,��
2020/01/09,18:00,0.178,0.159,0.271,0.251,0.249,0.137,0.085,���k��,8.4,��
2020/01/09,18:10,0.179,0.161,0.269,0.252,0.251,0.138,0.084,���k��,7.4,��
2020/01/09,18:20,0.177,0.160,0.268,0.250,0.250,0.137,0.085,���k��,7.6,��
2020/01/09,18:30,0.178,0.160,0.270,0.252,0.250,0.137,0.084,���k��,6.7,��
2020/01/09,18:40,0.178,0.160,0.271,0.251,0.249,0.137,0.084,���k��,5.4,��
2020/01/09,18:50,0.178,0.161,0.269,0.252,0.250,0.137,0.085,�k��,4.9,��
2020/01/09,19:00,0.179,0.161,0.269,0.250,0.251,0.137,0.084,�k��,5.6,��
2020/01/09,19:10,0.178,0.160,0.271,0.251,0.250,0.136,0.084,���k��,4.9,��
2020/01/09,19:20,0.179,0.159,0.270,0.252,0.251,0.137,0.084,���k��,4.5,��
2020/01/09,19:30,0.179,0.161,0.269,0.252,0.252,0.137,0.084,�k�k��,2.8,��
2020/01/09,19:40,0.179,0.162,0.270,0.252,0.250,0.137,0.085,�k�k��,3.2,��
2020/01/09,19:50,0.178,0.160,0.270,0.252,0.250,0.137,0.084,�k,2.6,��
2020/01/09,20:00,0.178,0.160,0.270,0.250,0.249,0.138,0.084,�k�k��,2.8,��
2020/01/09,20:10,0.178,0.160,0.270,0.251,0.251,0.138,0.084,�k�k��,3.3,��
2020/01/09,20:20,0.178,0.160,0.269,0.252,0.251,0.138,0.084,�k��,3.6,��
2020/01/09,20:30,0.178,0.159,0.271,0.252,0.251,0.137,0.084,���k��,6.8,��
2020/01/09,20:40,0.179,0.160,0.270,0.252,0.251,0.137,0.085,�k��,6.8,��
2020/01/09,20:50,0.177,0.161,0.269,0.252,0.251,0.137,0.084,���k��,7.7,��
2020/01/09,21:00,0.177,0.161,0.270,0.252,0.251,0.137,0.085,���k��,8.4,��
2020/01/09,21:10,0.178,0.160,0.269,0.251,0.249,0.137,0.085,���k��,7.6,��
2020/01/09,21:20,0.177,0.160,0.270,0.250,0.250,0.137,0.085,�k��,7.5,��
2020/01/09,21:30,0.179,0.160,0.269,0.250,0.250,0.137,0.085,�k��,7.6,��
2020/01/09,21:40,0.179,0.160,0.270,0.253,0.250,0.138,0.084,�k��,7.3,��
2020/01/09,21:50,0.178,0.160,0.270,0.252,0.250,0.137,0.085,�k��,6.6,��
2020/01/09,22:00,0.179,0.160,0.271,0.252,0.250,0.137,0.084,�k�k��,5.3,��
2020/01/09,22:10,0.179,0.160,0.270,0.251,0.251,0.137,0.085,�k,6.1,��
2020/01/09,22:20,0.178,0.161,0.271,0.253,0.251,0.137,0.084,�k�k��,7.1,��
2020/01/09,22:30,0.179,0.161,0.270,0.252,0.251,0.138,0.084,�k�k��,9.0,��
2020/01/09,22:40,0.179,0.161,0.271,0.252,0.250,0.137,0.085,�k�k��,8.8,��
2020/01/09,22:50,0.178,0.160,0.270,0.252,0.251,0.137,0.084,�k��,7.3,��
2020/01/09,23:00,0.179,0.161,0.271,0.252,0.251,0.138,0.086,�k��,6.2,��
2020/01/09,23:10,0.179,0.161,0.271,0.253,0.251,0.137,0.085,�k��,7.0,��
2020/01/09,23:20,0.179,0.160,0.271,0.252,0.251,0.137,0.085,�k��,6.2,��
2020/01/09,23:30,0.179,0.161,0.271,0.252,0.252,0.138,0.084,�k�k��,6.6,��
2020/01/09,23:40,0.179,0.161,0.269,0.252,0.250,0.138,0.084,�k�k��,6.3,��
2020/01/09,23:50,0.179,0.161,0.271,0.252,0.251,0.138,0.085,�k�k��,7.3,��
